N7QNM-13 Weather Reports


time (UTC)temp
F
wind
direction
speed
knots
gust
knots
rain 1hr
in
rain 24hr
in
rain mn
in
humidity
%
barometer
mb
20260831010541 87 23 0.0 1.7 0.00 0.00 0.00 20 1014.2
20260831005601 87 250 1.7 3.5 0.00 0.00 0.00 24 1014.4
20260831004541 86 331 1.7 2.6 0.00 0.00 0.00 21 1014.3
20260831003539 86 270 0.9 2.6 0.00 0.00 0.00 21 1014.3
20260831002600 84 309 0.9 2.6 0.00 0.00 0.00 23 1014.4
20260831001541 83 291 1.7 3.5 0.00 0.00 0.00 22 1014.4
20260831000540 83 326 1.7 2.6 0.00 0.00 0.00 23 1014.5
20260830235541 84 319 2.6 4.3 0.00 0.00 0.00 24 1014.6
20260830234540 83 338 2.6 4.3 0.00 0.00 0.00 26 1014.7
20260830233540 84 293 2.6 7.8 0.00 0.00 0.00 26 1014.8
20260830232541 83 279 3.5 4.3 0.00 0.00 0.00 27 1014.9
20260830231540 81 302 2.6 4.3 0.00 0.00 0.00 29 1015.0
20260830230540 80 99 1.7 3.5 0.00 0.00 0.00 30 1015.0
20260830225541 81 34 2.6 5.2 0.00 0.00 0.00 29 1015.1
20260830224542 81 38 3.5 5.2 0.00 0.00 0.00 29 1015.2
20260830223543 81 304 3.5 4.3 0.00 0.00 0.00 29 1015.4
20260830222541 81 8 1.7 5.2 0.00 0.00 0.00 29 1015.5
20260830221541 80 0 3.5 5.2 0.00 0.00 0.00 29 1015.5
20260830220541 80 321 3.5 5.2 0.00 0.00 0.00 30 1015.6
20260830215541 80 337 3.5 6.1 0.00 0.00 0.00 31 1015.8
20260830214542 80 335 3.5 5.2 0.00 0.00 0.00 30 1016.0
20260830213543 79 341 4.3 6.1 0.00 0.00 0.00 32 1016.1
20260830212542 79 19 5.2 6.1 0.00 0.00 0.00 32 1016.1
20260830211542 79 355 2.6 5.2 0.00 0.00 0.00 32 1016.2
20260830210544 78 73 3.5 5.2 0.00 0.00 0.00 34 1016.2
20260830205544 78 340 3.5 5.2 0.00 0.00 0.00 34 1016.2
20260830204604 77 334 4.3 7.0 0.00 0.00 0.00 33 1016.3
20260830203542 76 334 3.5 5.2 0.00 0.00 0.00 35 1016.4
20260830202544 76 20 3.5 4.3 0.00 0.00 0.00 37 1016.5
20260830201542 75 55 5.2 7.8 0.00 0.00 0.00 37 1016.5
20260830200543 75 20 2.6 3.5 0.00 0.00 0.00 36 1016.6
20260830195543 75 25 4.3 6.1 0.00 0.00 0.00 37 1016.8
20260830194543 75 85 2.6 4.3 0.00 0.00 0.00 38 1017.0
20260830193543 75 308 3.5 5.2 0.00 0.00 0.00 38 1017.0
20260830192543 75 305 3.5 4.3 0.00 0.00 0.00 38 1017.2
20260830191543 75 344 3.5 7.8 0.00 0.00 0.00 38 1017.3
20260830190543 75 244 4.3 7.0 0.00 0.00 0.00 39 1017.4
20260830185605 74 12 3.5 5.2 0.00 0.00 0.00 38 1017.4
20260830184545 72 173 3.5 5.2 0.00 0.00 0.00 40 1017.6
20260830183545 72 134 2.6 4.3 0.00 0.00 0.00 41 1017.6
20260830182544 71 15 5.2 6.1 0.00 0.00 0.00 42 1017.7
20260830181546 71 342 0.9 4.3 0.00 0.00 0.00 42 1017.8
20260830180546 71 331 3.5 5.2 0.00 0.00 0.00 42 1017.8
20260830175606 70 20 4.3 5.2 0.00 0.00 0.00 44 1017.8
20260830174544 70 336 1.7 4.3 0.00 0.00 0.00 41 1017.9
20260830173545 70 354 3.5 4.3 0.00 0.00 0.00 42 1017.9
20260830172605 70 347 2.6 3.5 0.00 0.00 0.00 41 1018.0
20260830171545 70 3 2.6 4.3 0.00 0.00 0.00 42 1018.0
20260830170546 70 147 1.7 2.6 0.00 0.00 0.00 43 1018.1
20260830165546 68 181 0.9 1.7 0.00 0.00 0.00 45 1018.2
20260830164545 67 247 1.7 3.5 0.00 0.00 0.00 47 1018.3
20260830163547 67 277 2.6 4.3 0.00 0.00 0.00 48 1018.4
20260830162545 66 293 1.7 3.5 0.00 0.00 0.00 51 1018.5
20260830161607 64 291 1.7 2.6 0.00 0.00 0.00 55 1018.6
20260830160546 62 267 2.6 3.5 0.00 0.00 0.00 56 1018.6
20260830155546 60 328 0.9 2.6 0.00 0.00 0.00 67 1018.6
20260830154546 58 315 0.9 2.6 0.00 0.00 0.00 72 1018.6
20260830153546 56 347 0.9 1.7 0.00 0.00 0.00 75 1018.5
20260830152546 56 301 0.0 1.7 0.00 0.00 0.00 77 1018.6
20260830151553 55 273 1.7 3.5 0.00 0.00 0.00 80 1018.6
20260830150546 55 258 0.9 1.7 0.00 0.00 0.00 86 1018.5
20260830145546 54 338 0.0 0.9 0.00 0.00 0.00 91 1018.5
20260830144548 52 0.0 0.0 0.00 0.00 0.00 93 1018.5
20260830143547 51 293 0.0 1.7 0.00 0.00 0.00 93 1018.5
20260830142548 49 0.0 0.0 0.00 0.00 0.00 93 1018.4
20260830141547 47 0.0 0.0 0.00 0.00 0.00 93 1018.3
20260830140547 45 0.0 0.0 0.00 0.00 0.00 92 1018.3
20260830135547 43 0.0 0.0 0.00 0.00 0.00 91 1018.2
20260830134548 42 0.0 0.0 0.00 0.00 0.00 90 1018.1
20260830133608 41 0.0 0.0 0.00 0.00 0.00 89 1018.0
20260830132548 42 0.0 0.0 0.00 0.00 0.00 89 1018.0
20260830131548 42 0.0 0.0 0.00 0.00 0.00 89 1018.0
20260830130547 42 0.0 0.0 0.00 0.00 0.00 89 1018.1
20260830125548 42 0.0 0.0 0.00 0.00 0.00 88 1018.1
20260830124548 42 0.0 0.0 0.00 0.00 0.00 88 1017.9
20260830123549 42 0.0 0.0 0.00 0.00 0.00 88 1017.8
20260830122610 42 0.0 0.0 0.00 0.00 0.00 87 1017.8
20260830121548 43 0.0 0.0 0.00 0.00 0.00 87 1017.8
20260830120548 42 0.0 0.0 0.00 0.00 0.00 87 1017.8
20260830115609 42 0.0 0.0 0.00 0.00 0.00 86 1017.8
20260830114550 43 0.0 0.0 0.00 0.00 0.00 86 1017.8
20260830113549 43 0.0 0.0 0.00 0.00 0.00 86 1017.7
20260830112549 44 0.0 0.0 0.00 0.00 0.00 85 1017.7
20260830111611 44 0.0 0.0 0.00 0.00 0.00 85 1017.7
20260830110609 44 0.0 0.0 0.00 0.00 0.00 85 1017.7
20260830105549 43 0.0 0.0 0.00 0.00 0.00 85 1017.6
20260830104550 44 0.0 0.0 0.00 0.00 0.00 83 1017.6
20260830103609 44 0.0 0.0 0.00 0.00 0.00 83 1017.6
20260830102549 44 0.0 0.0 0.00 0.00 0.00 82 1017.6
20260830101551 44 0.0 0.0 0.00 0.00 0.00 81 1017.6
20260830100551 45 0 0.9 2.6 0.00 0.00 0.00 81 1017.4
20260830095549 45 0.0 0.0 0.00 0.00 0.00 80 1017.4
20260830094550 45 0.0 0.0 0.00 0.00 0.00 79 1017.3
20260830093550 45 264 0.9 3.5 0.00 0.00 0.00 78 1017.3
20260830092612 46 0.0 0.0 0.00 0.00 0.00 77 1017.2
20260830091552 47 203 0.0 0.9 0.00 0.00 0.00 77 1017.2
20260830090612 47 0.0 0.0 0.00 0.00 0.00 75 1017.2
20260830085632 48 0.0 0.0 0.00 0.00 0.00 74 1017.2
20260830084552 49 190 0.9 3.5 0.00 0.00 0.00 75 1017.1
20260830083552 48 181 2.6 3.5 0.00 0.00 0.00 75 1017.2
20260830082551 49 186 0.9 2.6 0.00 0.00 0.00 75 1017.2
20260830081552 49 184 3.5 4.3 0.00 0.00 0.00 75 1017.2
20260830080551 49 185 0.9 2.6 0.00 0.00 0.00 75 1017.1
20260830075553 49 0.0 0.0 0.00 0.00 0.00 75 1017.2
20260830074551 50 0.0 0.0 0.00 0.00 0.00 73 1017.2
20260830073551 50 110 0.0 1.7 0.00 0.00 0.00 71 1017.1
20260830072553 51 114 1.7 2.6 0.00 0.00 0.00 71 1017.1
20260830071551 52 0.0 0.0 0.00 0.00 0.00 67 1017.1
20260830070612 52 0.0 0.0 0.00 0.00 0.00 65 1016.9
20260830065552 53 0.0 0.0 0.00 0.00 0.00 63 1016.9
20260830064552 54 259 1.7 3.5 0.00 0.00 0.00 62 1016.8
20260830063554 54 274 1.7 3.5 0.00 0.00 0.00 60 1016.8
20260830062552 55 247 0.9 2.6 0.00 0.00 0.00 57 1016.8
20260830061552 56 273 0.9 1.7 0.00 0.00 0.00 56 1016.9
20260830060552 57 260 1.7 2.6 0.00 0.00 0.00 55 1016.9
20260830055554 58 269 1.7 3.5 0.00 0.00 0.00 54 1016.9
20260830054553 58 278 1.7 3.5 0.00 0.00 0.00 54 1017.0
20260830053614 58 262 2.6 4.3 0.00 0.00 0.00 53 1017.0
20260830052553 59 270 3.5 5.2 0.00 0.00 0.00 53 1017.0
20260830051553 60 265 2.6 4.3 0.00 0.00 0.00 52 1017.1
20260830050555 60 248 3.5 7.8 0.00 0.00 0.00 53 1017.1
20260830045635 60 252 4.3 6.1 0.00 0.00 0.00 54 1017.0
20260830044553 60 260 2.6 4.3 0.00 0.00 0.00 54 1017.0
20260830043553 61 268 1.7 3.5 0.00 0.00 0.00 53 1017.0
20260830042554 62 259 2.6 5.2 0.00 0.00 0.00 52 1016.8
20260830041555 62 249 3.5 5.2 0.00 0.00 0.00 51 1016.7
20260830040554 63 248 3.5 4.3 0.00 0.00 0.00 50 1016.5
20260830035554 63 239 3.5 4.3 0.00 0.00 0.00 50 1016.3
20260830034554 63 206 1.7 3.5 0.00 0.00 0.00 49 1016.1
20260830033554 64 195 1.7 3.5 0.00 0.00 0.00 47 1015.9
20260830032554 65 200 0.9 3.5 0.00 0.00 0.00 46 1015.6
20260830031716 65 234 4.3 7.0 0.00 0.00 0.00 46 1015.4
20260830030554 66 244 2.6 5.2 0.00 0.00 0.00 46 1015.2
20260830025555 68 215 1.7 2.6 0.00 0.00 0.00 44 1015.1
20260830024555 69 263 1.7 1.7 0.00 0.00 0.00 41 1014.9
20260830023555 71 298 2.6 4.3 0.00 0.00 0.00 39 1014.8
20260830022556 74 300 2.6 4.3 0.00 0.00 0.00 36 1014.6
20260830021555 75 296 2.6 4.3 0.00 0.00 0.00 34 1014.5
20260830020555 75 281 2.6 4.3 0.00 0.00 0.00 33 1014.5
20260830015555 76 290 2.6 3.5 0.00 0.00 0.00 32 1014.4
20260830014556 76 279 3.5 5.2 0.00 0.00 0.00 32 1014.4
20260830013555 76 297 5.2 7.0 0.00 0.00 0.00 31 1014.4
20260830012637 77 294 4.3 7.0 0.00 0.00 0.00 31 1014.4
20260830011616 77 285 4.3 7.0 0.00 0.00 0.00 30 1014.3